Flag for Argentina Weather past 2 weeks in Salta, Salta, Argentina

Now
68 °F

Passing clouds.


Feels Like: 68 °F
Forecast: 53 / 84 °F
Wind: No wind

Location: Salta Aerodrome

Current Time: Sep 3, 2014 at 2:23:57 AM

Latest Report: Sep 3, 2014 at 2:00 AM


Visibility: N/A

Pressure: 29.98 "Hg

Humidity: 73%

Dew point: 59 °F

Location of SaltaLocation

Historic Weather in Salta — Graph

°F

Salta temperature yesterday

Maximum temperature yesterday: 86 °F (at 2:00 PM)
Minimum temperature yesterday: 50 °F (at 8:00 AM)
Average temperature yesterday: 70 °F

Past Weeks' High & Low Weather Summary

 TemperatureHumidityPressure
High93 °F (Aug 23, 4:00 PM)94% (Sep 2, 8:00 AM)30.30 "Hg (Sep 2, 8:00 AM)
Low36 °F (Aug 28, 8:00 AM)3% (Aug 24, 1:00 PM)29.65 "Hg (Aug 24, 3:00 PM)
Average62 °F53%30.02 "Hg
* Reported Aug 19 2:00 AM — Sep 3 1:00 AM, Salta, Weather by CustomWeather, © 2014

Note: Actual official high and low records may vary slightly from our data, if they occured in-between our weather recording intervals... More about our weather records

Advertising

Salta weather history for previous 24 hours

 ConditionsComfort  
Time TempWeatherWind HumidityBarometerVisibility
1:00 AM
Sep 3
70 °FPassing clouds.3 mph69%30.01 "HgN/A
12:00 AM70 °FPassing clouds.3 mph64%30.01 "HgN/A
11:00 PM
Sep 2
70 °FPassing clouds.No wind69%29.98 "HgN/A
10:00 PM73 °FPassing clouds.3 mph61%29.98 "HgN/A
9:00 PM75 °FPassing clouds.8 mph54%29.95 "HgN/A
8:00 PM75 °FPassing clouds.8 mph54%29.92 "HgN/A
7:00 PM79 °FPassing clouds.14 mph45%29.89 "Hg5 mi
6:00 PM81 °FScattered clouds.15 mph42%29.86 "HgN/A
5:00 PM82 °FScattered clouds.12 mph40%29.86 "HgN/A
4:00 PM86 °FPassing clouds.12 mph31%29.83 "HgN/A
3:00 PM86 °FSunny.15 mph29%29.86 "Hg10 mi
2:00 PM86 °FSunny.10 mph31%29.86 "Hg10 mi
1:00 PM82 °FSunny.3 mph37%29.89 "Hg10 mi
12:00 PM81 °FClear.6 mph42%29.92 "Hg5 mi
11:00 AM77 °FSunny.2 mph47%29.95 "Hg10 mi
10:00 AM70 °FSunny.2 mph57%29.92 "Hg10 mi
9:00 AM57 °FSunny.2 mph82%29.89 "Hg10 mi
8:00 AM50 °FSunny.2 mph94%29.86 "Hg10 mi
7:00 AM54 °FSunny.2 mph88%29.83 "Hg10 mi
6:00 AM54 °FClear.3 mph88%29.80 "Hg10 mi
5:00 AM57 °FClear.5 mph82%29.80 "Hg10 mi
4:00 AM59 °FClear.6 mph77%29.80 "Hg10 mi
3:00 AM57 °FClear.2 mph82%29.83 "Hg10 mi
2:00 AM57 °FClear.No wind77%29.86 "Hg10 mi
Weather by CustomWeather, © 2014

See weather overviewHow to use our weather pages